sat.trackr.live / text

‹ back to catalog

STARLINK-32352

NORAD 61847 · 2024-202C

PAYLOAD ACTIVE UNKNOWN

§ Identity

Operator
Country
US
Launch date
2024-11-07
Launch site
AFETR
Launch vehicle
Mass (kg)
RCS (m²)

Purposes: comms

External: N2YO · Heavens-Above · Gunter

§ Orbital elements

Epoch: 2026-05-25T00:44:19.926816Z

Period
94.27 min
Inclination
43.0014°
Eccentricity
0.0001517
Mean motion
15.27578487 rev/d
Perigee alt
482.0 km
Apogee alt
484.1 km
Semi-major
6,861.2 km
B*
4.4542e-5
RAAN
155.5548°
Arg perigee
271.2716°
Mean anomaly
88.7962°
Rev number
8,714

§ Raw data

STARLINK-323521 61847U 24202C   26145.03078619  .00000964  00000+0  44542-4 0  99992 61847  43.0014 155.5548 0001517 271.2716  88.7962 15.27578487 87147

JSON: /api/v1/satellites/61847 · /tle

For live sub-satellite position, see the globe view (requires WebGL).

§ Visibility from observer

Set your observer location to see the next 7 days of passes ≥ 10°. The values pass through the URL so the page stays shareable.

No JS? Fill the form by hand. The geolocation button needs JavaScript.